Welcome to the New NWS' Forecast!
Most changes are behind the scenes, but click here for differences you might notice.
Latest weather observations around

Mount Shasta (KMHS)

Using English Units (Switch to International System of Units)
Date/ Time (PDT) Wind (mph) Vis. (mi) Weather Sky Cond. Temp (°F) Rel. Humidity Wind Chill (°F) Heat Index (°F) Pressure Precip. (in)
Air Dwpt 6 hour Altimeter (inHg) Sea level (inHg) 1 hr 3 hr 6 hr
Max Min
Sep 24 09:56 5 10 Clear CLR 58 37     46%     30.13 30.16      
Sep 24 08:56 Calm 10 Clear CLR 46 36     68%     30.14 30.18      
Sep 24 07:56 Calm 10 Clear CLR 37 33     85%     30.13 30.19      
Sep 24 06:56 Calm 10 Clear CLR 35 31     85%     30.12 30.17      
Sep 24 05:56 NE 3 10 Clear CLR 35 32     88% 32   30.11 30.15      
Sep 24 04:56 Calm 10 Clear CLR 35 32     88%     30.1 30.14      
Sep 24 03:56 Calm 10 Clear CLR 36 32     85%     30.09 30.13      
Sep 24 02:56 E 3 10 Clear CLR 37 33     85% 35   30.09 30.13      
Sep 24 01:56 Calm 10 Clear CLR 37 33     85%     30.09 30.12      
Sep 24 00:56 ENE 3 10 Clear CLR 39 34     82% 37   30.08 30.11      
Sep 23 23:56 Calm 10 Clear CLR 42 34     73%     30.08 30.12      
Sep 23 22:56 Calm 10 Clear CLR 43 35     73%     30.07 30.11      
Sep 23 21:56 NE 3 10 Clear CLR 45 36     71% 44   30.06 30.09      
Sep 23 20:56 ENE 5 10 Clear CLR 47 35     63% 45   30.04 30.09      
Sep 23 19:56 ENE 3 10 Clear CLR 51 35     54%     30.03 30.09      
Sep 23 18:56 Calm 10 Clear CLR 55 33     43%     30.02 30.08      
Sep 23 17:56 3 10 Clear CLR 60 33     36%     30.01 30.06      
Sep 23 16:56 6 10 Clear CLR 61 34     36%     30.02 30.06      
Sep 23 15:56 7 10 Clear CLR 63 33     33%       30.06      
Sep 23 14:56   10 Clear CLR 63 33     33%       30.06      
Sep 23 13:56 3 10 Mostly Cloudy BKN090 64 34     33%       30.07      
Sep 23 12:56 6 10 Mostly Cloudy BKN110 61 34     36%     30.05 30.09      
Sep 23 11:56 5 10 Mostly Cloudy BKN110 58 34     40%     30.06 30.1      
Sep 23 10:56 5 10 Clear CLR 57 36     45%     30.07 30.12      
Sep 23 09:56 7 10 Clear CLR 53 35     50%     30.08 30.12      
Sep 23 08:56 Calm 10 Clear CLR 43 35     73%     30.08 30.14      
Sep 23 07:56 Calm 10 Clear CLR 36 31     82%     30.07 30.14      
Sep 23 06:56 Calm 10 Clear   33 29     85%     30.07 30.13      
Sep 23 05:56 Calm 10 Clear CLR 32 29     88%     30.06 30.12      
Sep 23 04:56 Calm 10 Clear CLR 33 29     85%     30.05 30.1      
Sep 23 03:56 Calm 10 Clear CLR 33 30     88%     30.04 30.09      
Sep 23 02:56 Calm 10 Clear CLR 35 30     82%     30.04 30.08      
Sep 23 01:56 NE 3 10 Clear CLR 36 30     79% 33   30.04 30.08      
Sep 23 00:56 Calm 10 Clear CLR 36 31     82%     30.04 30.08      
Sep 22 23:56 ENE 3 10 Clear CLR 38 31     76% 36   30.03 30.07      
Sep 22 22:56 ENE 3 10 Clear CLR 38 31     76% 36   30.02 30.07      
Sep 22 21:56 ENE 3 10 Clear CLR 40 32     73% 38   30.01 30.06      
Sep 22 20:56 Calm 10 Clear CLR 42 33     70%     30.01 30.06      
Sep 22 19:56 Calm 10 Mostly Clear FEW080 46 36     68%     29.99 30.06      
Sep 22 18:56 Calm 10 Mostly Cloudy BKN095 52 36     54%     29.98 30.04      
Sep 22 17:56 Calm 10 Cloudy OVC090 54 37     53%     29.97 30.03      
Sep 22 16:56 Calm 10 Cloudy OVC070 56 33     42%     29.96 30.01      
Sep 22 15:56 5 10 Cloudy FEW065 BKN080 OVC090 59 31     34%     29.95 30      
Sep 22 14:56 3 10 Mostly Cloudy BKN065 61 31     32%     29.95 29.98      
Sep 22 13:56 WSW 3 10 Mostly Cloudy BKN060 BKN085 61 32     33%     29.96 29.98      
Sep 22 12:56 3 10 Mostly Clear FEW060 62 32     32%     29.96 29.98      
Sep 22 11:56 3 10 Mostly Clear FEW075 55 34     45%     29.97 30.01      
Sep 22 10:56 3 10 Clear CLR 54 35     49%     29.99 30.02      
Sep 22 09:56 5 10 Clear CLR 51 35     54%     29.99 30.03      
Sep 22 08:56 Calm 10 Clear CLR 44 35     70%     29.98 30.03      
Sep 22 07:56 Calm 10 Clear CLR 34 29     82%     29.98 30.04      
Sep 22 06:56 NE 3 10 Clear CLR 31 28     89% 28   29.96 30.03      
Sep 22 05:56 ENE 3 10 Clear CLR 32 28     85% 29   29.95 30.01      
Sep 22 04:56 Calm 10 Clear   33 29     85%     29.95 30.01      
Sep 22 03:56 Calm 10 Clear CLR 34 30     85%     29.94 29.99      
Sep 22 02:56 Calm 10 Mostly Clear FEW065 38 33     82%     29.94 29.98      
Sep 22 01:56 Calm 10 Mostly Clear FEW100 43 33     68%     29.94 29.97      
Sep 22 00:56 Calm 10 Clear CLR 43 33     68%     29.93 29.97      
Sep 21 23:56 Calm 10 Partly Cloudy SCT100 45 32     60%     29.93 29.96      
Sep 21 22:56 3 10 Mostly Clear FEW110 46 32     58% 45   29.92 29.95      
Sep 21 21:56 3 10 Partly Cloudy SCT120 45 32     60% 44   29.92 29.96      
Sep 21 20:56 5 10 Partly Cloudy SCT120 46 32     58% 44   29.91 29.96      
Sep 21 19:56 3 10 Clear CLR 48 31     51% 47   29.89 29.94      
Sep 21 18:56 7 10 Clear CLR 50 31     48% 47   29.88 29.93      
Sep 21 17:56 6 10 Clear CLR 52 30     43%     29.88 29.92      
Sep 21 16:56 7 10 Clear CLR 53 31     43%     29.87 29.91      
Sep 21 15:56 6 10 Clear CLR 57 28     33%     29.86 29.89      
Sep 21 14:56 6 10 Clear CLR 57 27     31%     29.87 29.9      
Sep 21 13:56 NW 10 10 Clear CLR 56 29     35%     29.89 29.92      
Sep 21 12:56 7 10 Clear CLR 55 32     41%     29.89 29.92      
Sep 21 11:56 6 10 Mostly Cloudy BKN033 52 35     52%     29.91 29.95      
Sep 21 11:32 7 10 Partly Cloudy SCT031 53 35     50%     29.91        
Sep 21 10:56 6 10 Mostly Cloudy BKN028 BKN034 52 37     57%     29.92 29.96      
Sep 21 10:10   10 Mostly Cloudy SCT023 BKN031 50 37     61%     29.92        
Jun 11 19:56 N 11 10 Cloudy FEW024 BKN038 OVC075 44 39     82% 38   29.93 30 0 0  
Jun 11 18:56 N 8 9 Light Rain BKN037 OVC048 44 40     85% 40   29.93 29.99 0    
Jun 11 12:56 3 5 Light Rain and Fog/Mist BKN023 OVC030 40 37     89% 38   29.93 30 0    
Jun 11 05:25 NW 3 9 Light Rain BKN008 OVC015 38 35     89% 36   29.9   0    
Jun 10 15:56 Calm 10 Light Rain FEW043 OVC060 55 41     59%     29.85 29.89 0    
Jun 10 14:56 3 10 Light Rain FEW021 BKN060 OVC075 57 41     55%     29.85 29.89 0    
Jun 09 00:56 Calm 10 Clear   45 43     93%     29.97 30.01      
Jun 08 08:17 3 6 Light Rain and Fog/Mist FEW027 BKN039 OVC055 46 44     93% 45   29.93   0    
Notice The following observation data may not be complete
Jun 08 04:07   4 Rain and Fog/Mist FEW007 BKN023 OVC037          %         0    
Jun 07 18:56 3 10 Clear CLR 67 40     37%     29.84 29.82      
Jun 07 16:56 Calm 10 Clear CLR 69 42     38%     29.87 29.86      
Jun 07 06:56 Calm 10 Clear CLR 56 47     72%     29.92 29.89      
Notice The following observation data may not be complete
Jun 07 05:56 Calm 10 Clear CLR   45      %     29.92 29.9      
Jun 06 11:56 Calm 10 Clear CLR 79 46     31%   78 29.98 29.95